Location: Palomar Mountain Lodge
(33.3110°N, 116.8495°W)
Time: 02:48:30
(UTC-07:00)

Cosmos 1697 Rocket - Pass Details

Date: 12 July 2018
Orbit: 832 x 844 km, 71.0° (Epoch: 20 July)

Event Time Altitude Azimuth Distance (km) Brightness Sun altitude
Exits shadow 23:36:07 33° 45° (NE) 1,379 3.9 -31.9°
Drops below altitude 10° 23:39:18 10° 30° (NNE) 2,463 5.5 -32.1°
Sets 23:41:47 0° 26° (NNE) 3,400 6.4 -32.3°
